Time,TemperatureF,DewpointF,PressureIn,WindDirection,WindDirectionDegrees,WindSpeedMPH,WindSpeedGustMPH,Humidity,HourlyPrecipIn,Conditions,Clouds,dailyrainin,SoftwareType,DateUTC
2013-04-08 00:10:00,57.0,49.9,29.84,North,9,0.0,0.0,77,0.00,,CLR,0.00,VWS V14.01,2013-04-08 07:10:00,
2013-04-08 00:20:00,56.8,50.1,29.84,North,9,0.0,0.0,78,0.00,,CLR,0.00,VWS V14.01,2013-04-08 07:20:00,
2013-04-08 00:30:00,56.7,49.9,29.84,North,9,0.0,0.0,78,0.00,,CLR,0.00,VWS V14.01,2013-04-08 07:30:00,
2013-04-08 00:40:00,56.5,49.7,29.84,North,9,3.2,3.8,78,0.00,,CLR,0.00,VWS V14.01,2013-04-08 07:40:00,
2013-04-08 00:50:00,56.5,50.1,29.84,North,9,3.2,3.8,79,0.00,,CLR,0.00,VWS V14.01,2013-04-08 07:50:00,
2013-04-08 01:00:00,56.1,49.7,29.84,NNE,25,2.7,5.9,79,0.00,,CLR,0.00,VWS V14.01,2013-04-08 08:00:00,
2013-04-08 01:10:00,55.9,49.9,29.84,NW,309,2.7,4.8,80,0.00,,CLR,0.00,VWS V14.01,2013-04-08 08:10:00,
2013-04-08 01:20:00,55.9,49.9,29.84,NW,309,0.0,2.7,80,0.00,,CLR,0.00,VWS V14.01,2013-04-08 08:20:00,
2013-04-08 01:30:00,55.6,49.5,29.84,North,356,0.0,4.8,80,0.00,,CLR,0.00,VWS V14.01,2013-04-08 08:30:00,
2013-04-08 01:40:00,55.6,49.8,29.84,NW,321,0.0,3.2,81,0.00,,CLR,0.00,VWS V14.01,2013-04-08 08:40:00,
2013-04-08 01:50:00,55.6,49.8,29.84,WSW,248,0.0,0.0,81,0.00,,CLR,0.00,VWS V14.01,2013-04-08 08:50:00,
2013-04-08 02:00:00,55.6,49.8,29.84,WSW,248,0.0,0.0,81,0.00,,CLR,0.00,VWS V14.01,2013-04-08 09:00:00,
2013-04-08 02:10:00,55.2,49.5,29.84,NNE,16,0.0,4.3,81,0.00,,CLR,0.00,VWS V14.01,2013-04-08 09:10:00,
2013-04-08 02:20:00,54.7,49.0,29.84,North,0,4.3,4.3,81,0.00,,CLR,0.00,VWS V14.01,2013-04-08 09:20:00,
2013-04-08 02:30:00,54.5,49.1,29.81,North,351,0.0,4.8,82,0.00,,CLR,0.00,VWS V14.01,2013-04-08 09:30:00,
2013-04-08 02:40:00,54.5,49.1,29.81,North,351,0.0,0.0,82,0.00,,CLR,0.00,VWS V14.01,2013-04-08 09:40:00,
2013-04-08 02:50:00,54.1,48.8,29.81,North,351,3.2,3.2,82,0.00,,CLR,0.00,VWS V14.01,2013-04-08 09:50:00,
2013-04-08 03:00:00,53.8,48.8,29.81,NW,311,0.0,4.8,83,0.00,,CLR,0.00,VWS V14.01,2013-04-08 10:00:00,
2013-04-08 03:10:00,53.6,48.6,29.81,NW,311,0.0,0.0,83,0.00,,CLR,0.00,VWS V14.01,2013-04-08 10:10:00,
2013-04-08 03:20:00,53.6,48.6,29.81,ENE,58,0.0,3.8,83,0.00,,CLR,0.00,VWS V14.01,2013-04-08 10:20:00,
2013-04-08 03:30:00,53.4,48.7,29.81,NNE,27,0.0,3.8,84,0.00,,CLR,0.00,VWS V14.01,2013-04-08 10:30:00,
2013-04-08 03:40:00,53.4,49.0,29.78,North,351,0.0,4.3,85,0.00,,CLR,0.00,VWS V14.01,2013-04-08 10:40:00,
2013-04-08 03:50:00,53.4,49.0,29.78,NW,312,0.0,2.7,85,0.00,,CLR,0.00,VWS V14.01,2013-04-08 10:50:00,
2013-04-08 04:00:00,53.4,49.0,29.78,SW,229,0.0,2.7,85,0.00,,CLR,0.00,VWS V14.01,2013-04-08 11:00:00,
2013-04-08 04:10:00,53.6,49.2,29.78,South,182,0.0,3.8,85,0.00,,CLR,0.00,VWS V14.01,2013-04-08 11:10:00,
2013-04-08 04:20:00,53.4,49.0,29.78,NNE,28,0.0,0.0,85,0.00,,CLR,0.00,VWS V14.01,2013-04-08 11:20:00,
2013-04-08 04:30:00,53.2,48.8,29.78,NW,312,0.0,3.8,85,0.00,,CLR,0.00,VWS V14.01,2013-04-08 11:30:00,
2013-04-08 04:40:00,53.1,48.7,29.78,WSW,251,3.2,4.8,85,0.00,,CLR,0.00,VWS V14.01,2013-04-08 11:40:00,
2013-04-08 04:50:00,52.9,48.5,29.78,North,6,0.0,4.8,85,0.00,,CLR,0.00,VWS V14.01,2013-04-08 11:50:00,
2013-04-08 05:00:00,52.5,48.5,29.78,North,356,5.9,7.5,86,0.00,,CLR,0.00,VWS V14.01,2013-04-08 12:00:00,
2013-04-08 05:10:00,52.7,49.0,29.78,North,356,4.8,7.5,87,0.00,,CLR,0.00,VWS V14.01,2013-04-08 12:10:00,
2013-04-08 05:20:00,52.7,49.0,29.78,NNE,12,0.0,4.8,87,0.00,,CLR,0.00,VWS V14.01,2013-04-08 12:20:00,
2013-04-08 05:30:00,52.5,48.8,29.78,WNW,289,0.0,2.7,87,0.00,,CLR,0.00,VWS V14.01,2013-04-08 12:30:00,
2013-04-08 05:40:00,52.3,48.6,29.75,West,281,0.0,3.2,87,0.00,,CLR,0.00,VWS V14.01,2013-04-08 12:40:00,
2013-04-08 05:50:00,52.0,47.9,29.75,West,274,2.7,3.8,86,0.00,,CLR,0.00,VWS V14.01,2013-04-08 12:50:00,
2013-04-08 06:00:00,52.0,47.3,29.78,NE,42,0.0,2.7,84,0.00,,CLR,0.00,VWS V14.01,2013-04-08 13:00:00,
2013-04-08 06:10:00,52.0,47.0,29.78,NE,51,4.8,7.5,83,0.00,,CLR,0.00,VWS V14.01,2013-04-08 13:10:00,
2013-04-08 06:20:00,52.5,46.5,29.78,WSW,244,7.0,7.5,80,0.00,,CLR,0.00,VWS V14.01,2013-04-08 13:20:00,
2013-04-08 06:40:00,54.5,43.8,29.75,WSW,243,9.9,23.1,67,0.00,,CLR,0.00,VWS V14.01,2013-04-08 13:40:00,
2013-04-08 06:50:00,54.7,43.2,29.75,SW,227,9.9,15.8,65,0.00,,CLR,0.00,VWS V14.01,2013-04-08 13:50:00,
2013-04-08 07:00:00,54.7,42.8,29.75,WNW,283,7.0,16.4,64,0.00,,CLR,0.00,VWS V14.01,2013-04-08 14:00:00,
2013-04-08 07:10:00,54.9,42.5,29.75,West,262,4.8,12.6,63,0.00,,CLR,0.00,VWS V14.01,2013-04-08 14:10:00,
2013-04-08 07:20:00,54.5,41.3,29.75,WNW,294,10.5,20.4,61,0.00,,CLR,0.00,VWS V14.01,2013-04-08 14:20:00,
2013-04-08 07:30:00,54.7,41.5,29.75,SSW,209,10.5,18.0,61,0.00,,CLR,0.00,VWS V14.01,2013-04-08 14:30:00,
2013-04-08 07:40:00,54.7,40.7,29.75,WSW,242,6.4,18.0,59,0.00,,CLR,0.00,VWS V14.01,2013-04-08 14:40:00,
2013-04-08 07:50:00,54.5,39.6,29.75,WSW,249,10.5,20.9,57,0.00,,CLR,0.00,VWS V14.01,2013-04-08 14:50:00,
2013-04-08 08:00:00,54.5,39.1,29.75,WSW,246,15.8,17.4,56,0.00,,CLR,0.00,VWS V14.01,2013-04-08 15:00:00,
2013-04-08 08:10:00,54.5,38.7,29.78,WSW,245,10.5,20.4,55,0.00,,CLR,0.00,VWS V14.01,2013-04-08 15:10:00,
2013-04-08 08:20:00,54.7,38.4,29.78,NW,323,9.9,17.4,54,0.00,,CLR,0.00,VWS V14.01,2013-04-08 15:20:00,
2013-04-08 08:30:00,55.0,38.2,29.78,West,280,9.9,20.9,53,0.00,,CLR,0.00,VWS V14.01,2013-04-08 15:30:00,
2013-04-08 08:40:00,55.0,38.7,29.78,SW,222,10.5,24.7,54,0.00,,CLR,0.00,VWS V14.01,2013-04-08 15:40:00,
2013-04-08 08:50:00,55.2,38.4,29.78,West,276,9.9,20.9,53,0.00,,CLR,0.00,VWS V14.01,2013-04-08 15:50:00,
2013-04-08 09:00:00,55.8,37.4,29.78,West,268,13.7,16.4,50,0.00,,CLR,0.00,VWS V14.01,2013-04-08 16:00:00,
2013-04-08 09:10:00,56.3,37.4,29.78,West,275,12.6,21.5,49,0.00,,CLR,0.00,VWS V14.01,2013-04-08 16:10:00,
2013-04-08 09:20:00,56.5,37.0,29.78,West,260,9.7,21.5,48,0.00,,CLR,0.00,VWS V14.01,2013-04-08 16:20:00,
2013-04-08 09:30:00,56.8,37.4,29.78,West,273,11.5,20.1,48,0.00,,CLR,0.00,VWS V14.01,2013-04-08 16:30:00,
2013-04-08 09:40:00,57.2,37.2,29.78,WNW,288,9.1,18.5,47,0.00,,CLR,0.00,VWS V14.01,2013-04-08 16:40:00,
2013-04-08 09:50:00,57.6,37.5,29.78,WNW,295,9.1,25.2,47,0.00,,CLR,0.00,VWS V14.01,2013-04-08 16:50:00,
2013-04-08 10:00:00,57.6,37.0,29.78,SSW,198,9.1,20.1,46,0.00,,CLR,0.00,VWS V14.01,2013-04-08 17:00:00,
2013-04-08 10:10:00,58.1,37.5,29.78,West,263,15.3,17.4,46,0.00,,CLR,0.00,VWS V14.01,2013-04-08 17:10:00,
2013-04-08 10:20:00,58.5,37.2,29.78,WSW,254,11.5,20.9,45,0.00,,CLR,0.00,VWS V14.01,2013-04-08 17:20:00,
2013-04-08 10:30:00,59.0,36.6,29.78,South,172,20.1,23.1,43,0.00,,CLR,0.00,VWS V14.01,2013-04-08 17:30:00,
2013-04-08 10:50:00,59.7,37.2,29.78,WSW,245,15.3,22.0,43,0.00,,CLR,0.00,VWS V14.01,2013-04-08 17:50:00,
2013-04-08 11:00:00,59.7,37.2,29.75,WSW,255,13.2,26.3,43,0.00,,CLR,0.00,VWS V14.01,2013-04-08 18:00:00,
2013-04-08 11:10:00,60.3,38.3,29.75,SSW,196,22.5,22.5,44,0.00,,CLR,0.00,VWS V14.01,2013-04-08 18:10:00,
2013-04-08 11:20:00,60.4,37.3,29.75,SW,227,12.6,24.2,42,0.00,,CLR,0.00,VWS V14.01,2013-04-08 18:20:00,
2013-04-08 11:30:00,61.5,37.6,29.75,West,264,6.4,23.6,41,0.00,,CLR,0.00,VWS V14.01,2013-04-08 18:30:00,
2013-04-08 11:40:00,61.7,37.8,29.75,WSW,243,15.8,20.9,41,0.00,,CLR,0.00,VWS V14.01,2013-04-08 18:40:00,
2013-04-08 11:50:00,62.1,37.5,29.75,WSW,248,10.5,30.9,40,0.00,,CLR,0.00,VWS V14.01,2013-04-08 18:50:00,
2013-04-08 12:00:00,62.1,38.7,29.75,SW,230,13.2,28.5,42,0.00,,CLR,0.00,VWS V14.01,2013-04-08 19:00:00,
2013-04-08 12:10:00,62.6,38.0,29.75,SSW,205,18.5,29.0,40,0.00,,CLR,0.00,VWS V14.01,2013-04-08 19:10:00,
2013-04-08 12:20:00,63.1,39.1,29.75,SW,231,22.5,22.5,41,0.00,,CLR,0.00,VWS V14.01,2013-04-08 19:20:00,
2013-04-08 12:30:00,63.7,38.9,29.75,West,270,18.5,24.2,40,0.00,,CLR,0.00,VWS V14.01,2013-04-08 19:30:00,
2013-04-08 12:40:00,64.6,39.1,29.75,South,187,18.5,19.1,39,0.00,,CLR,0.00,VWS V14.01,2013-04-08 19:40:00,
2013-04-08 12:50:00,66.2,38.5,29.75,NW,319,15.3,19.1,36,0.00,,CLR,0.00,VWS V14.01,2013-04-08 19:50:00,
2013-04-08 13:00:00,67.6,38.3,29.75,West,268,10.5,20.4,34,0.00,,CLR,0.00,VWS V14.01,2013-04-08 20:00:00,
2013-04-08 13:10:00,68.2,38.0,29.75,NW,324,9.7,23.6,33,0.00,,CLR,0.00,VWS V14.01,2013-04-08 20:10:00,
2013-04-08 13:20:00,68.7,38.5,29.75,West,272,15.8,24.7,33,0.00,,CLR,0.00,VWS V14.01,2013-04-08 20:20:00,
2013-04-08 13:30:00,69.3,38.2,29.72,West,264,21.5,22.0,32,0.00,,CLR,0.00,VWS V14.01,2013-04-08 20:30:00,
2013-04-08 13:40:00,69.4,38.3,29.75,NW,307,18.5,23.6,32,0.00,,CLR,0.00,VWS V14.01,2013-04-08 20:40:00,
2013-04-08 13:50:00,69.3,38.2,29.75,NW,307,24.7,26.8,32,0.00,,CLR,0.00,VWS V14.01,2013-04-08 20:50:00,
2013-04-08 14:00:00,68.5,37.5,29.75,West,280,25.2,30.6,32,0.00,,CLR,0.00,VWS V14.01,2013-04-08 21:00:00,
2013-04-08 14:10:00,68.4,37.4,29.72,West,269,29.0,29.5,32,0.00,,CLR,0.00,VWS V14.01,2013-04-08 21:10:00,
2013-04-08 14:20:00,68.5,37.5,29.72,West,280,21.5,29.0,32,0.00,,CLR,0.00,VWS V14.01,2013-04-08 21:20:00,
2013-04-08 14:30:00,68.9,37.8,29.72,NW,305,10.5,30.6,32,0.00,,CLR,0.00,VWS V14.01,2013-04-08 21:30:00,
2013-04-08 14:40:00,70.0,38.0,29.75,NNW,330,9.7,23.6,31,0.00,,CLR,0.00,VWS V14.01,2013-04-08 21:40:00,
2013-04-08 14:50:00,70.0,36.3,29.75,WNW,293,18.0,26.8,29,0.00,,CLR,0.00,VWS V14.01,2013-04-08 21:50:00,
2013-04-08 15:10:00,70.3,35.7,29.75,NW,322,7.5,24.7,28,0.00,,,0.00,VWS V14.01,2013-04-08 22:10:00,
2013-04-08 15:20:00,70.2,35.6,29.75,West,277,14.8,25.8,28,0.00,,,0.00,VWS V14.01,2013-04-08 22:20:00,
2013-04-08 15:30:00,70.9,35.3,29.75,NNW,334,12.6,25.8,27,0.00,,,0.00,VWS V14.01,2013-04-08 22:30:00,
2013-04-08 15:40:00,70.9,34.3,29.75,NW,324,9.9,20.4,26,0.00,,CLR,0.00,VWS V14.01,2013-04-08 22:40:00,
2013-04-08 15:50:00,71.4,35.7,29.75,NW,313,9.9,20.1,27,0.00,,CLR,0.00,VWS V14.01,2013-04-08 22:50:00,
2013-04-08 16:00:00,71.2,34.6,29.75,West,275,7.0,22.0,26,0.00,,CLR,0.00,VWS V14.01,2013-04-08 23:00:00,
2013-04-08 16:10:00,71.1,34.5,29.75,NW,324,11.0,21.5,26,0.00,,CLR,0.00,VWS V14.01,2013-04-08 23:10:00,
2013-04-08 16:20:00,71.2,35.6,29.75,NNW,334,9.1,19.1,27,0.00,,CLR,0.00,VWS V14.01,2013-04-08 23:20:00,
2013-04-08 16:30:00,71.2,34.6,29.75,NW,325,10.5,18.0,26,0.00,,CLR,0.00,VWS V14.01,2013-04-08 23:30:00,
2013-04-08 16:40:00,70.9,34.3,29.75,NW,321,15.3,26.3,26,0.00,,CLR,0.00,VWS V14.01,2013-04-08 23:40:00,
2013-04-08 16:50:00,70.7,34.2,29.75,West,275,15.3,19.1,26,0.00,,CLR,0.00,VWS V14.01,2013-04-08 23:50:00,
2013-04-08 17:00:00,70.7,34.2,29.75,West,264,9.9,20.4,26,0.00,,CLR,0.00,VWS V14.01,2013-04-09 00:00:00,
2013-04-08 17:10:00,70.3,33.9,29.75,NW,312,13.2,16.4,26,0.00,,CLR,0.00,VWS V14.01,2013-04-09 00:10:00,
2013-04-08 17:20:00,70.3,33.9,29.75,NW,306,12.6,20.4,26,0.00,,CLR,0.00,VWS V14.01,2013-04-09 00:20:00,
2013-04-08 17:30:00,70.0,33.5,29.75,NW,325,9.9,26.8,26,0.00,,CLR,0.00,VWS V14.01,2013-04-09 00:30:00,
2013-04-08 17:40:00,69.8,33.4,29.75,NW,315,10.5,20.1,26,0.00,,CLR,0.00,VWS V14.01,2013-04-09 00:40:00,
2013-04-08 17:50:00,69.8,33.4,29.75,WNW,289,7.0,19.1,26,0.00,,CLR,0.00,VWS V14.01,2013-04-09 00:50:00,
2013-04-08 18:00:00,69.3,32.9,29.75,WNW,301,17.4,21.5,26,0.00,,CLR,0.00,VWS V14.01,2013-04-09 01:00:00,
2013-04-08 18:10:00,68.7,32.5,29.75,NW,325,7.5,19.1,26,0.00,,CLR,0.00,VWS V14.01,2013-04-09 01:10:00,
2013-04-08 18:20:00,68.2,32.0,29.75,WNW,285,9.9,17.4,26,0.00,,CLR,0.00,VWS V14.01,2013-04-09 01:20:00,
2013-04-08 18:30:00,67.8,32.7,29.75,NW,318,9.1,16.9,27,0.00,,CLR,0.00,VWS V14.01,2013-04-09 01:30:00,
2013-04-08 18:40:00,67.5,32.3,29.78,WNW,294,7.5,13.2,27,0.00,,CLR,0.00,VWS V14.01,2013-04-09 01:40:00,
2013-04-08 19:00:00,66.6,31.6,29.78,WNW,292,7.0,15.3,27,0.00,,CLR,0.00,VWS V14.01,2013-04-09 02:00:00,
2013-04-08 19:10:00,66.2,31.3,29.78,WNW,292,9.1,12.1,27,0.00,,CLR,0.00,VWS V14.01,2013-04-09 02:10:00,
2013-04-08 19:20:00,65.7,31.7,29.78,NW,321,12.1,12.1,28,0.00,,CLR,0.00,VWS V14.01,2013-04-09 02:20:00,
2013-04-08 19:40:00,64.2,32.2,29.78,WNW,299,9.7,13.2,30,0.00,,CLR,0.00,VWS V14.01,2013-04-09 02:40:00,
2013-04-08 19:50:00,63.9,32.7,29.78,West,277,9.9,12.6,31,0.00,,CLR,0.00,VWS V14.01,2013-04-09 02:50:00,
2013-04-08 20:00:00,63.5,32.3,29.78,NNW,335,10.5,14.8,31,0.00,,CLR,0.00,VWS V14.01,2013-04-09 03:00:00,
2013-04-08 20:10:00,63.1,32.0,29.78,West,273,6.4,12.1,31,0.00,,CLR,0.00,VWS V14.01,2013-04-09 03:10:00,
2013-04-08 20:30:00,62.8,33.3,29.81,WNW,288,2.7,7.5,33,0.00,,CLR,0.00,VWS V14.01,2013-04-09 03:30:00,
2013-04-08 20:40:00,62.1,35.5,29.81,South,191,4.8,6.4,37,0.00,,CLR,0.00,VWS V14.01,2013-04-09 03:40:00,
2013-04-08 20:50:00,59.9,39.1,29.81,WSW,248,4.3,13.2,46,0.00,,CLR,0.00,VWS V14.01,2013-04-09 03:50:00,
2013-04-08 21:00:00,59.0,39.4,29.81,SSW,201,3.8,10.5,48,0.00,,CLR,0.00,VWS V14.01,2013-04-09 04:00:00,
2013-04-08 21:10:00,58.5,39.4,29.84,South,176,4.3,12.1,49,0.00,,CLR,0.00,VWS V14.01,2013-04-09 04:10:00,
2013-04-08 21:20:00,58.1,39.6,29.84,SSW,201,11.5,14.8,50,0.00,,CLR,0.00,VWS V14.01,2013-04-09 04:20:00,
2013-04-08 21:30:00,57.9,39.4,29.84,SSW,193,2.7,12.1,50,0.00,,CLR,0.00,VWS V14.01,2013-04-09 04:30:00,
2013-04-08 21:40:00,57.9,38.4,29.84,SW,218,9.9,10.5,48,0.00,,CLR,0.00,VWS V14.01,2013-04-09 04:40:00,
2013-04-08 22:00:00,58.3,38.2,29.84,WNW,295,7.0,8.6,47,0.00,,CLR,0.00,VWS V14.01,2013-04-09 05:00:00,
2013-04-08 22:10:00,58.3,38.2,29.84,WSW,239,3.2,8.6,47,0.00,,CLR,0.00,VWS V14.01,2013-04-09 05:10:00,
2013-04-08 22:20:00,58.1,38.0,29.84,SSW,206,3.2,7.5,47,0.00,,CLR,0.00,VWS V14.01,2013-04-09 05:20:00,
2013-04-08 22:30:00,58.1,38.0,29.87,WNW,282,0.0,6.4,47,0.00,,CLR,0.00,VWS V14.01,2013-04-09 05:30:00,
2013-04-08 22:40:00,57.9,38.4,29.87,NNW,339,0.0,4.3,48,0.00,,CLR,0.00,VWS V14.01,2013-04-09 05:40:00,
2013-04-08 22:50:00,57.6,38.0,29.87,SSW,196,0.0,4.8,48,0.00,,CLR,0.00,VWS V14.01,2013-04-09 05:50:00,
2013-04-08 23:00:00,57.2,37.2,29.87,WNW,303,0.0,4.8,47,0.00,,CLR,0.00,VWS V14.01,2013-04-09 06:00:00,
2013-04-08 23:10:00,57.2,37.7,29.87,WNW,300,0.0,2.7,48,0.00,,CLR,0.00,VWS V14.01,2013-04-09 06:10:00,
2013-04-08 23:20:00,56.8,37.4,29.87,SSW,208,3.2,4.3,48,0.00,,CLR,0.00,VWS V14.01,2013-04-09 06:20:00,
2013-04-08 23:30:00,56.7,36.7,29.87,WSW,246,0.0,6.4,47,0.00,,CLR,0.00,VWS V14.01,2013-04-09 06:30:00,
2013-04-08 23:40:00,56.7,36.7,29.87,WSW,245,3.8,6.4,47,0.00,,CLR,0.00,VWS V14.01,2013-04-09 06:40:00,
2013-04-08 23:50:00,56.7,36.7,29.87,SW,227,3.8,4.8,47,0.00,,CLR,0.00,VWS V14.01,2013-04-09 06:50:00,